This is the latest recevied weather packets stored in our database for station/object WP3OF-1. If no packets are shown the sender has not sent any weather packets the latest 1 day(s).
| Time | Temp. | Humidity | Pressure | Rain* | Wind** | Luminosity | Snow |
|---|---|---|---|---|---|---|---|
| 1777977878 | 25° C | 90% | 1017.2 hPa | 0 mm | 2.68 m/s, 101° | - | - |
| 1777977572 | 25° C | 90% | 1017 hPa | 0 mm | 3.13 m/s, 96° | - | - |
| 1777977265 | 25° C | 91% | 1016.9 hPa | 0 mm | 3.13 m/s, 109° | - | - |
| 1777976962 | 24.44° C | 92% | 1016.9 hPa | 0 mm | 5.36 m/s, 110° | - | - |
| 1777976658 | 24.44° C | 92% | 1017.1 hPa | 0 mm | 2.68 m/s, 100° | - | - |
| 1777976355 | 24.44° C | 92% | 1016.8 hPa | 0 mm | 2.68 m/s, 114° | - | - |
| 1777976059 | 24.44° C | 93% | 1017 hPa | 0 mm | 3.13 m/s, 95° | - | - |
| 1777975751 | 24.44° C | 93% | 1016.8 hPa | 0 mm | 3.13 m/s, 95° | - | - |
| 1777975447 | 24.44° C | 92% | 1016.7 hPa | 0 mm | 2.68 m/s, 89° | - | - |
| 1777975143 | 24.44° C | 92% | 1016.7 hPa | 0 mm | 3.58 m/s, 98° | - | - |
| 1777974840 | 25° C | 92% | 1016.8 hPa | 0 mm | 2.68 m/s, 90° | - | - |
| 1777974536 | 25° C | 92% | 1017 hPa | 0 mm | 3.58 m/s, 95° | - | - |
| 1777974234 | 24.44° C | 92% | 1016.8 hPa | 0 mm | 2.68 m/s, 89° | - | - |
| 1777973929 | 24.44° C | 92% | 1017.1 hPa | 0 mm | 2.68 m/s, 107° | - | - |
| 1777973627 | 24.44° C | 92% | 1016.9 hPa | 0 mm | 2.68 m/s, 81° | - | - |
| 1777973324 | 24.44° C | 92% | 1016.8 hPa | 0 mm | 2.68 m/s, 108° | - | - |
| 1777973022 | 24.44° C | 92% | 1016.6 hPa | 0 mm | 2.68 m/s, 82° | - | - |
| 1777972719 | 24.44° C | 92% | 1016.7 hPa | 0 mm | 2.68 m/s, 93° | - | - |
| 1777972417 | 25° C | 91% | 1016.8 hPa | 0 mm | 2.68 m/s, 90° | - | - |
| 1777972115 | 25° C | 91% | 1016.4 hPa | 0 mm | 3.58 m/s, 94° | - | - |
| 1777971813 | 25° C | 91% | 1016.5 hPa | 0 mm | 4.47 m/s, 96° | - | - |
| 1777971509 | 25° C | 91% | 1016.3 hPa | 0 mm | 4.02 m/s, 86° | - | - |
| 1777971207 | 25° C | 91% | 1016.3 hPa | 0 mm | 4.02 m/s, 93° | - | - |
| 1777970905 | 25° C | 91% | 1016.4 hPa | 0 mm | 4.92 m/s, 102° | - | - |
| 1777970603 | 25° C | 91% | 1016.3 hPa | 0 mm | 4.47 m/s, 105° | - | - |
* Rain latest hour (hover to see other rain measurements)
** Current wind speed in m/s (hover to see current wind gust speed)